[[{"header":{"parameterUnit":"m.s-1","parameterCategory":1,"la1":30.2991,"la2":30.254,"lo1":-89.0895,"lo2":-89.0444,"dy":0.0017,"dx":0.0017,"nx":28,"ny":28,"refTime":"2023-09-04T09:00:00:Z","depth":0,"parameterNumber":2,"parameterNumberName":"U-component_of_WINDS"},"data":[0,0,0,0,0,0,0,0,0,0,0,0,0,0,0,0,0,0,0,0,0,0,0,0,0,0,0,0,0,0,0,0,0,0,0,0,0,0,0,0,0,0,0,0,0,0,0,0,0,0,0,0,0,0,0,0,0,0,-3.273,-3.2733,0,-3.3079,-3.3083,-3.3087,-3.3237,-3.3236,-3.3236,-3.3235,-3.3597,-3.3607,-3.3617,0,0,0,0,0,0,0,0,0,0,0,0,0,-3.2196,-3.2205,-3.2729,-3.2734,-3.2738,-3.3079,-3.3084,-3.3088,-3.3237,-3.3236,-3.3236,-3.3235,-3.3594,-3.3606,-3.3618,0,0,0,0,0,0,0,0,0,0,0,0,0,-3.2475,-3.2208,-3.2729,-3.2853,-3.2868,-3.3078,-3.3084,-3.309,-3.3237,-3.3236,-3.3235,-3.3235,-3.359,-3.3605,-3.362,-3.3733,0,0,-3.3667,-3.3673,0,0,0,0,0,0,0,0,-3.2459,-3.2494,-3.2831,-3.2845,-3.2862,-3.3114,-3.3029,-3.3305,-3.3237,-3.3097,-3.3235,-3.3234,-3.3437,-3.3465,-3.3533,-3.375,-3.3765,-3.3668,-3.3677,-3.3684,-3.3688,0,0,0,0,0,0,0,-3.244,-3.248,-3.2868,-3.2835,-3.2855,-3.2894,-3.2932,-3.3082,-3.3268,-3.3109,-3.3121,-3.316,-3.3446,-3.3518,-3.3542,-3.3771,-3.3667,-3.3681,-3.3691,-3.3697,-3.4102,-3.4104,0,0,0,0,0,0,-3.2399,-3.2463,-3.2857,-3.2879,-3.2654,-3.2904,-3.2947,-3.3034,-3.3267,-3.3302,-3.3161,-3.3166,-3.3492,-3.3524,-3.3556,-3.3705,-3.3684,-3.3698,-3.3707,-3.41,-3.4102,-3.4104,0,0,0,0,0,0,-3.2387,-3.2433,-3.2843,-3.2674,-3.2729,-3.2914,-3.301,-3.3041,-3.3113,-3.3306,-3.334,-3.3199,-3.3493,-3.3534,-3.3688,-3.372,-3.3705,-3.3719,-3.4099,-3.4101,-3.4103,-3.4004,0,0,0,0,0,0,-3.2371,-3.2427,-3.247,-3.2674,-3.2738,-3.2967,-3.3012,-3.3049,-3.3139,-3.3149,-3.3351,-3.3384,-3.3495,-3.3665,-3.3703,-3.3741,-3.3731,-3.4097,-3.41,-3.4102,-3.4005,-3.4002,-3.4,0,0,0,0,0,-3.2351,-3.2429,-3.2472,-3.2519,-3.2795,-3.2969,-3.3005,-3.313,-3.3141,-3.3187,-3.3311,-3.3378,-3.371,-3.3679,-3.3724,-3.3766,-3.4095,-3.4099,-3.4102,-3.4006,-3.4003,-3.4,0,0,0,0,0,0,-3.2225,-3.2457,-3.2508,-3.2653,-3.279,-3.2993,-3.3055,-3.3123,-3.326,-3.3264,-3.3415,-3.3459,-3.3601,-3.37,-3.3661,-3.389,-3.3909,-3.3921,-3.382,-3.3818,-3.3816,-3.3789,-3.3744,0,0,0,0,0,-3.2213,-3.2333,-3.2531,-3.264,-3.2706,-3.2868,-3.2948,-3.3033,-3.3182,-3.324,-3.3376,-3.3518,-3.3656,-3.3743,-3.388,-3.4021,-3.4068,-3.4072,-3.407,-3.4067,-3.4076,-3.4161,-3.4165,-3.4116,-3.4116,-3.4116,0,0,-3.2192,-3.2334,-3.24,-3.2618,-3.2734,-3.2857,-3.2916,-3.3042,-3.3136,-3.326,-3.3414,-3.3518,-3.3688,-3.3836,-3.3909,-3.3923,-3.4101,-3.4071,-3.4068,-3.4079,-3.4165,-3.4169,-3.4173,-3.4118,-3.4118,-3.4117,0,0,-3.2215,-3.2333,-3.2438,-3.2553,-3.2728,-3.2836,-3.2861,-3.3056,-3.313,-3.3287,-3.3383,-3.3498,-3.373,-3.3848,-3.3938,-3.4008,-3.4076,-3.4049,-3.4036,-3.4117,-3.4121,-3.4125,-3.4151,-3.4159,-3.4058,-3.4058,-3.4057,0,-3.2166,-3.2352,-3.2484,-3.2606,-3.27,-3.2818,-3.2927,-3.3033,-3.3244,-3.3307,-3.332,-3.3616,-3.3739,-3.3917,-3.3935,-3.4003,-3.4039,-3.4026,-3.4109,-3.4115,-3.4121,-3.4148,-3.4157,-3.4053,-3.4054,-3.4054,-3.4055,0,-3.2284,-3.2413,-3.2477,-3.2677,-3.2779,-3.2893,-3.3044,-3.3132,-3.3208,-3.3316,-3.3475,-3.3627,-3.3797,-3.3846,-3.3923,-3.4037,-3.4041,-3.4079,-3.4101,-3.4119,-3.4147,-3.4158,-3.4047,-3.4048,-3.405,-3.4051,0,0,-3.2235,-3.2508,-3.2529,-3.2622,-3.2825,-3.2928,-3.305,-3.3216,-3.3289,-3.3431,-3.3538,-3.3734,-3.3772,-3.3874,-3.3965,-3.4036,-3.4084,-3.4067,-3.4073,-3.4065,-3.4222,-3.4191,-3.4201,-3.413,-3.4133,-3.4135,-3.4208,0,-3.2286,-3.2507,-3.263,-3.28,-3.2922,-3.3037,-3.3144,-3.3281,-3.3385,-3.3506,-3.3622,-3.3759,-3.3798,-3.386,-3.3936,-3.4062,-3.4118,-3.4059,-3.4233,-3.4238,-3.4186,-3.4215,-3.4183,-3.4244,-3.422,-3.4222,-3.4223,0,-3.2375,-3.2514,-3.2695,-3.2887,-3.2943,-3.3035,-3.3199,-3.3312,-3.3471,-3.3543,-3.3658,-3.3749,-3.3884,-3.3896,-3.4086,-3.4043,-3.4123,-3.4196,-3.4201,-3.4222,-3.423,-3.4237,-3.4267,-3.4276,-3.4241,-3.424,-3.4239,0,-3.2321,-3.2555,-3.2695,-3.2771,-3.2997,-3.306,-3.3158,-3.3316,-3.3409,-3.3553,-3.3615,-3.3773,-3.3859,-3.3981,-3.4113,-3.4109,-3.4291,-3.4313,-3.4355,-3.4352,-3.4388,-3.4383,-3.443,-3.4438,-3.4438,-3.4438,-3.4438,0,-3.2365,-3.2472,-3.2674,-3.276,-3.2884,-3.3026,-3.3146,-3.3253,-3.3394,-3.3504,-3.3615,-3.3717,-3.3885,-3.4009,-3.4114,-3.4256,-3.4295,-3.4358,-3.4384,-3.4348,-3.4339,-3.4401,-3.44,-3.4441,-3.444,-3.4439,-3.4439,0,-3.2326,-3.2466,-3.2626,-3.2827,-3.2881,-3.2963,-3.3137,-3.3226,-3.3337,-3.3476,-3.3517,-3.3691,-3.3843,-3.3987,-3.419,-3.4261,-3.4404,-3.4438,-3.4349,-3.4364,-3.4398,-3.4393,-3.4486,-3.4506,-3.4499,-3.4499,-3.4499,0,-3.2345,-3.243,-3.2641,-3.2722,-3.2817,-3.2946,-3.3042,-3.3186,-3.3282,-3.3471,-3.3538,-3.3697,-3.3832,-3.4069,-3.4216,-3.4372,-3.4412,-3.4434,-3.4436,-3.4397,-3.4413,-3.4406,-3.4416,-3.443,-3.443,-3.4429,-3.4429,0,-3.2364,-3.2429,-3.2561,-3.2718,-3.2829,-3.296,-3.3095,-3.3155,-3.3326,-3.3428,-3.3584,-3.3688,-3.3896,-3.4053,-3.4227,-3.4331,-3.4409,-3.4427,-3.4445,-3.4409,-3.4353,-3.4384,-3.4341,-3.4424,-3.4424,-3.4425,-3.4425,-3.4425,-3.2356,-3.2437,-3.2598,-3.2743,-3.2859,-3.2983,-3.3077,-3.32,-3.3332,-3.3511,-3.3589,-3.3746,-3.3908,-3.4149,-3.4251,-3.4379,-3.4397,-3.4423,-3.443,-3.4434,-3.4426,-3.4333,-3.4411,-3.4411,-3.4412,-3.4412,-3.4412,0,-3.2381,-3.2491,-3.2622,-3.2807,-3.2921,-3.2984,-3.3137,-3.3229,-3.3366,-3.3508,-3.3639,-3.3819,-3.3973,-3.4132,-3.4296,-3.4367,-3.4407,-3.4405,-3.4402,-3.4425,-3.44,-3.4368,-3.437,-3.437,-3.437,-3.437,-3.437,-3.437,-3.2408,-3.2549,-3.2634,-3.2836,-3.2946,-3.31,-3.3182,-3.3298,-3.3413,-3.3608,-3.3736,-3.3838,-3.3989,-3.4165,-3.431,-3.4353,-3.4409,-3.4397,-3.445,-3.4424,-3.4426,-3.4428,-3.4399,-3.4407,-3.4407,-3.4464,-3.4464,-3.4465]},{"header":{"parameterUnit":"m.s-1","parameterCategory":1,"la1":30.2991,"la2":30.254,"lo1":-89.0895,"lo2":-89.0444,"dy":0.0017,"dx":0.0017,"nx":28,"ny":28,"refTime":"2023-09-04T09:00:00:Z","depth":0,"parameterNumber":3,"parameterNumberName":"V-component_of_WINDS"},"data":[0,0,0,0,0,0,0,0,0,0,0,0,0,0,0,0,0,0,0,0,0,0,0,0,0,0,0,0,0,0,0,0,0,0,0,0,0,0,0,0,0,0,0,0,0,0,0,0,0,0,0,0,0,0,0,0,0,0,3.7156,3.7157,0,3.7267,3.7268,3.7269,3.7231,3.7228,3.7226,3.7223,3.7327,3.7332,3.7337,0,0,0,0,0,0,0,0,0,0,0,0,0,3.6901,3.6906,3.7156,3.7157,3.7159,3.7267,3.7268,3.727,3.7231,3.7228,3.7225,3.7222,3.7326,3.7331,3.7338,0,0,0,0,0,0,0,0,0,0,0,0,0,3.7011,3.6907,3.7156,3.7153,3.7153,3.7266,3.7268,3.727,3.7232,3.7228,3.7224,3.7221,3.7324,3.7331,3.7338,3.7458,0,0,3.7361,3.7365,0,0,0,0,0,0,0,0,3.7005,3.7021,3.7152,3.7153,3.7154,3.7231,3.7216,3.7333,3.7232,3.7202,3.7223,3.7219,3.7298,3.7307,3.7336,3.7463,3.7467,3.7362,3.7367,3.737,3.7372,0,0,0,0,0,0,0,3.6998,3.7016,3.7199,3.7154,3.7155,3.7142,3.7154,3.7238,3.7268,3.7204,3.7202,3.7216,3.7297,3.7328,3.7338,3.7469,3.7362,3.7369,3.7373,3.7376,3.7698,3.7702,0,0,0,0,0,0,3.6991,3.701,3.7196,3.7203,3.707,3.715,3.7163,3.721,3.7267,3.7273,3.7219,3.7213,3.7317,3.7329,3.7341,3.7484,3.737,3.7377,3.7381,3.7694,3.7699,3.7703,0,0,0,0,0,0,3.6985,3.7008,3.7191,3.7106,3.7128,3.7158,3.7211,3.7214,3.7245,3.7279,3.7283,3.7245,3.7315,3.7331,3.743,3.7487,3.738,3.7387,3.7689,3.7696,3.7701,3.7771,0,0,0,0,0,0,3.6978,3.7006,3.7054,3.7107,3.7133,3.7281,3.7215,3.7219,3.7259,3.7254,3.7305,3.731,3.7313,3.7419,3.7437,3.7496,3.7393,3.7684,3.7692,3.7699,3.7764,3.7779,3.7792,0,0,0,0,0,3.6969,3.7067,3.7057,3.7079,3.7194,3.7284,3.7299,3.7304,3.7264,3.7311,3.7333,3.7308,3.7478,3.7429,3.745,3.7511,3.7681,3.769,3.7699,3.7758,3.7776,3.7792,0,0,0,0,0,0,3.7016,3.7074,3.7063,3.7182,3.7229,3.7278,3.7337,3.7323,3.738,3.7372,3.7372,3.7384,3.7486,3.7508,3.7453,3.7629,3.7573,3.7587,3.7611,3.7629,3.7642,3.7634,3.7399,0,0,0,0,0,3.7041,3.7113,3.7158,3.7258,3.7283,3.7306,3.7346,3.7346,3.7393,3.7412,3.7441,3.7485,3.7548,3.759,3.765,3.7768,3.7777,3.782,3.7834,3.7845,3.7856,3.7918,3.7938,3.7733,3.7733,3.7733,0,0,3.7091,3.7132,3.7177,3.7269,3.7305,3.7377,3.7323,3.7401,3.7453,3.7423,3.7519,3.7542,3.7591,3.77,3.7749,3.7721,3.7915,3.7857,3.7866,3.787,3.793,3.7949,3.7966,3.7739,3.7738,3.7737,0,0,3.722,3.7259,3.7347,3.7385,3.7443,3.7458,3.7479,3.7531,3.7546,3.7643,3.7622,3.7682,3.7792,3.7828,3.786,3.8004,3.7982,3.8023,3.8095,3.8156,3.8172,3.8186,3.8235,3.8253,3.8034,3.8034,3.8035,0,3.7274,3.7384,3.7392,3.7473,3.7513,3.7493,3.758,3.7616,3.7689,3.7715,3.7685,3.7822,3.7854,3.797,3.8006,3.8033,3.8055,3.8016,3.817,3.8184,3.8197,3.8244,3.8263,3.8039,3.8038,3.8038,3.8038,0,3.7448,3.7524,3.7587,3.7662,3.771,3.7793,3.781,3.7857,3.7853,3.7871,3.7969,3.8007,3.8074,3.8102,3.8098,3.8217,3.8199,3.8169,3.8112,3.8221,3.8265,3.8283,3.8045,3.8044,3.8042,3.8041,0,0,3.7606,3.7687,3.771,3.7743,3.7806,3.7863,3.7944,3.8014,3.8053,3.8104,3.817,3.8264,3.8237,3.8274,3.8274,3.8328,3.8437,3.8291,3.8292,3.8315,3.8569,3.859,3.8611,3.8425,3.8428,3.8431,3.8565,0,3.7739,3.7886,3.7896,3.8027,3.8096,3.8079,3.8149,3.8193,3.8212,3.8271,3.829,3.8357,3.8317,3.8339,3.8392,3.8413,3.8488,3.8404,3.8483,3.8486,3.847,3.8634,3.8656,3.8781,3.8582,3.8585,3.8587,0,3.7913,3.7973,3.8112,3.8165,3.8194,3.8258,3.8322,3.838,3.8429,3.8438,3.8481,3.8474,3.8554,3.8496,3.8605,3.8548,3.8581,3.8596,3.8601,3.8607,3.8542,3.8642,3.8821,3.8839,3.8615,3.8612,3.8611,0,3.8013,3.8128,3.8226,3.8255,3.832,3.8365,3.8393,3.8439,3.848,3.8535,3.8561,3.8624,3.8658,3.8705,3.8713,3.8671,3.8822,3.8766,3.883,3.883,3.886,3.8858,3.9045,3.8885,3.8885,3.8885,3.8884,0,3.8158,3.8243,3.8272,3.8332,3.8426,3.8436,3.8528,3.8553,3.8594,3.8656,3.8644,3.8702,3.8711,3.877,3.8777,3.8865,3.8881,3.8889,3.8889,3.8889,3.8888,3.8909,3.89,3.889,3.8889,3.8888,3.8887,0,3.8285,3.8308,3.8414,3.8468,3.8483,3.855,3.8594,3.865,3.8668,3.8747,3.8766,3.8793,3.8862,3.8876,3.8957,3.8962,3.9066,3.9059,3.9051,3.9049,3.9112,3.9105,3.9317,3.9344,3.9169,3.9171,3.9172,0,3.8376,3.8441,3.8503,3.8546,3.8578,3.8646,3.8689,3.87,3.8745,3.8806,3.8854,3.8923,3.8978,3.9089,3.9114,3.9176,3.9168,3.9238,3.9177,3.9175,3.9167,3.9162,3.9168,3.9249,3.9251,3.9253,3.9254,0,3.8533,3.8542,3.8606,3.8675,3.8727,3.878,3.8831,3.8865,3.8883,3.8933,3.9006,3.9049,3.9134,3.9201,3.9263,3.9288,3.9273,3.9274,3.9291,3.9291,3.9283,3.9286,3.9081,3.9268,3.9266,3.9265,3.9265,3.9264,3.8643,3.8701,3.8754,3.8825,3.8866,3.8914,3.8969,3.8996,3.9058,3.9129,3.9132,3.921,3.9256,3.9339,3.9368,3.9428,3.9405,3.9431,3.9437,3.9443,3.9448,3.9275,3.9439,3.9439,3.9438,3.9438,3.9438,0,3.8799,3.8833,3.8899,3.8972,3.9028,3.9014,3.9069,3.9115,3.9186,3.9232,3.9288,3.937,3.9436,3.9467,3.9531,3.9572,3.9567,3.9589,3.9584,3.959,3.9466,3.9443,3.9592,3.9592,3.9592,3.9592,3.9592,3.9592,3.8886,3.8983,3.8998,3.9113,3.9145,3.9225,3.9258,3.9301,3.9338,3.9432,3.9488,3.9509,3.9548,3.9615,3.9674,3.9681,3.9704,3.9729,3.9732,3.9615,3.9599,3.9584,3.9563,3.9734,3.9734,3.9851,3.9853,3.9853]}]]